Year,Month,Day,Hour,Minute,Value (Times are PST for windgust in km/hr)
2008,02,06,00,00,17.70
2008,02,06,00,01,11.30
2008,02,06,00,02,11.30
2008,02,06,00,03,11.30
2008,02,06,00,04,11.30
2008,02,06,00,05,19.30
2008,02,06,00,06,20.90
2008,02,06,00,07,20.90
2008,02,06,00,08,16.10
2008,02,06,00,09,20.90
2008,02,06,00,10,25.70
2008,02,06,00,11,14.50
2008,02,06,00,12,11.30
2008,02,06,00,13,22.50
2008,02,06,00,14,20.90
2008,02,06,00,15,27.40
2008,02,06,00,16,30.60
2008,02,06,00,17,33.80
2008,02,06,00,18,25.70
2008,02,06,00,19,35.40
2008,02,06,00,20,25.70
2008,02,06,00,21,24.20
2008,02,06,00,22,24.20
2008,02,06,00,23,32.20
2008,02,06,00,24,24.20
2008,02,06,00,25,24.20
2008,02,06,00,26,27.40
2008,02,06,00,27,27.40
2008,02,06,00,28,29.00
2008,02,06,00,29,22.50
2008,02,06,00,30,20.90
2008,02,06,00,31,25.70
2008,02,06,00,32,14.50
2008,02,06,00,33,14.50
2008,02,06,00,34,16.10
2008,02,06,00,35,20.90
2008,02,06,00,36,24.20
2008,02,06,00,37,24.20
2008,02,06,00,38,19.30
2008,02,06,00,39,22.50
2008,02,06,00,40,25.70
2008,02,06,00,41,24.20
2008,02,06,00,42,20.90
2008,02,06,00,43,17.70
2008,02,06,00,44,11.30
2008,02,06,00,45,24.20
2008,02,06,00,46,24.20
2008,02,06,00,47,17.70
2008,02,06,00,48,24.20
2008,02,06,00,49,20.90
2008,02,06,00,50,24.20
2008,02,06,00,51,14.50
2008,02,06,00,52,11.30
2008,02,06,00,53,29.00
2008,02,06,00,54,24.20
2008,02,06,00,55,20.90
2008,02,06,00,56,16.10
2008,02,06,00,57,17.70
2008,02,06,00,58,6.40
2008,02,06,00,59,8.10
2008,02,06,01,00,8.10
2008,02,06,01,01,17.70
2008,02,06,01,02,19.30
2008,02,06,01,03,11.30
2008,02,06,01,04,20.90
2008,02,06,01,05,16.10
2008,02,06,01,06,17.70
2008,02,06,01,07,20.90
2008,02,06,01,08,22.50
2008,02,06,01,09,19.30
2008,02,06,01,10,20.90
2008,02,06,01,11,22.50
2008,02,06,01,12,11.30
2008,02,06,01,13,11.30
2008,02,06,01,14,17.70
2008,02,06,01,15,22.50
2008,02,06,01,16,22.50
2008,02,06,01,17,12.90
2008,02,06,01,18,14.50
2008,02,06,01,19,11.30
2008,02,06,01,20,8.10
2008,02,06,01,21,16.10
2008,02,06,01,22,8.10
2008,02,06,01,23,17.70
2008,02,06,01,24,20.90
2008,02,06,01,25,14.50
2008,02,06,01,26,22.50
2008,02,06,01,27,29.00
2008,02,06,01,28,22.50
2008,02,06,01,29,19.30
2008,02,06,01,30,17.70
2008,02,06,01,31,25.70
2008,02,06,01,32,20.90
2008,02,06,01,33,20.90
2008,02,06,01,34,19.30
2008,02,06,01,35,20.90
2008,02,06,01,36,24.20
2008,02,06,01,37,20.90
2008,02,06,01,38,27.40
2008,02,06,01,39,22.50
2008,02,06,01,40,22.50
2008,02,06,01,41,19.30
2008,02,06,01,42,24.20
2008,02,06,01,43,20.90
2008,02,06,01,44,19.30
2008,02,06,01,45,9.60
2008,02,06,01,46,20.90
2008,02,06,01,47,9.60
2008,02,06,01,48,24.20
2008,02,06,01,49,20.90
2008,02,06,01,50,16.10
2008,02,06,01,51,17.70
2008,02,06,01,52,27.40
2008,02,06,01,53,20.90
2008,02,06,01,54,19.30
2008,02,06,01,55,25.70
2008,02,06,01,56,20.90
2008,02,06,01,57,24.20
2008,02,06,01,58,20.90
2008,02,06,01,59,20.90
2008,02,06,02,00,24.20
2008,02,06,02,01,29.00
2008,02,06,02,02,27.40
2008,02,06,02,03,20.90
2008,02,06,02,04,17.70
2008,02,06,02,05,19.30
2008,02,06,02,06,19.30
2008,02,06,02,07,17.70
2008,02,06,02,08,11.30
2008,02,06,02,09,27.40
2008,02,06,02,10,24.20
2008,02,06,02,11,24.20
2008,02,06,02,12,17.70
2008,02,06,02,13,17.70
2008,02,06,02,14,17.70
2008,02,06,02,15,16.10
2008,02,06,02,16,22.50
2008,02,06,02,17,17.70
2008,02,06,02,18,19.30
2008,02,06,02,19,24.20
2008,02,06,02,20,20.90
2008,02,06,02,21,22.50
2008,02,06,02,22,22.50
2008,02,06,02,23,20.90
2008,02,06,02,24,16.10
2008,02,06,02,25,16.10
2008,02,06,02,26,19.30
2008,02,06,02,27,20.90
2008,02,06,02,28,24.20
2008,02,06,02,29,19.30
2008,02,06,02,30,20.90
2008,02,06,02,31,20.90
2008,02,06,02,32,25.70
2008,02,06,02,33,20.90
2008,02,06,02,34,16.10
2008,02,06,02,35,19.30
2008,02,06,02,36,16.10
2008,02,06,02,37,25.70
2008,02,06,02,38,16.10
2008,02,06,02,39,19.30
2008,02,06,02,40,11.30
2008,02,06,02,41,6.40
2008,02,06,02,42,19.30
2008,02,06,02,43,12.90
2008,02,06,02,44,17.70
2008,02,06,02,45,17.70
2008,02,06,02,46,4.80
2008,02,06,02,47,11.30
2008,02,06,02,48,11.30
2008,02,06,02,49,9.60
2008,02,06,02,50,11.30
2008,02,06,02,51,14.50
2008,02,06,02,52,24.20
2008,02,06,02,53,19.30
2008,02,06,02,54,17.70
2008,02,06,02,55,14.50
2008,02,06,02,56,32.20
2008,02,06,02,57,20.90
2008,02,06,02,58,24.20
2008,02,06,02,59,29.00
2008,02,06,03,00,40.20
2008,02,06,03,01,29.00
2008,02,06,03,02,14.50
2008,02,06,03,03,19.30
2008,02,06,03,04,25.70
2008,02,06,03,05,22.50
2008,02,06,03,06,27.40
2008,02,06,03,07,22.50
2008,02,06,03,08,24.20
2008,02,06,03,09,20.90
2008,02,06,03,10,24.20
2008,02,06,03,11,33.80
2008,02,06,03,12,20.90
2008,02,06,03,13,20.90
2008,02,06,03,14,17.70
2008,02,06,03,15,19.30
2008,02,06,03,16,14.50
2008,02,06,03,17,20.90
2008,02,06,03,18,22.50
2008,02,06,03,19,25.70
2008,02,06,03,20,24.20
2008,02,06,03,21,12.90
2008,02,06,03,22,22.50
2008,02,06,03,23,22.50
2008,02,06,03,24,19.30
2008,02,06,03,25,27.40
2008,02,06,03,26,20.90
2008,02,06,03,27,16.10
2008,02,06,03,28,19.30
2008,02,06,03,29,19.30
2008,02,06,03,30,8.10
2008,02,06,03,31,16.10
2008,02,06,03,32,20.90
2008,02,06,03,33,20.90
2008,02,06,03,34,19.30
2008,02,06,03,35,20.90
2008,02,06,03,36,16.10
2008,02,06,03,37,9.60
2008,02,06,03,38,12.90
2008,02,06,03,39,11.30
2008,02,06,03,40,11.30
2008,02,06,03,41,4.80
2008,02,06,03,42,8.10
2008,02,06,03,43,9.60
2008,02,06,03,44,11.30
2008,02,06,03,45,6.40
2008,02,06,03,46,4.80
2008,02,06,03,47,12.90
2008,02,06,03,48,6.40
2008,02,06,03,49,4.80
2008,02,06,03,50,4.80
2008,02,06,03,51,9.60
2008,02,06,03,52,6.40
2008,02,06,03,53,8.10
2008,02,06,03,54,9.60
2008,02,06,03,55,12.90
2008,02,06,03,56,22.50
2008,02,06,03,57,19.30
2008,02,06,03,58,16.10
2008,02,06,03,59,11.30
2008,02,06,04,00,20.90
2008,02,06,04,01,19.30
2008,02,06,04,02,17.70
2008,02,06,04,03,19.30
2008,02,06,04,04,17.70
2008,02,06,04,05,6.40
2008,02,06,04,06,9.60
2008,02,06,04,07,9.60
2008,02,06,04,08,11.30
2008,02,06,04,09,9.60
2008,02,06,04,10,17.70
2008,02,06,04,11,8.10
2008,02,06,04,12,11.30
2008,02,06,04,13,11.30
2008,02,06,04,14,17.70
2008,02,06,04,15,19.30
2008,02,06,04,16,19.30
2008,02,06,04,17,14.50
2008,02,06,04,18,14.50
2008,02,06,04,19,22.50
2008,02,06,04,20,19.30
2008,02,06,04,21,9.60
2008,02,06,04,22,19.30
2008,02,06,04,23,16.10
2008,02,06,04,24,14.50
2008,02,06,04,25,14.50
2008,02,06,04,26,8.10
2008,02,06,04,27,27.40
2008,02,06,04,28,16.10
2008,02,06,04,29,6.40
2008,02,06,04,30,17.70
2008,02,06,04,31,14.50
2008,02,06,04,32,17.70
2008,02,06,04,33,11.30
2008,02,06,04,34,17.70
2008,02,06,04,35,11.30
2008,02,06,04,36,12.90
2008,02,06,04,37,11.30
2008,02,06,04,38,12.90
2008,02,06,04,39,19.30
2008,02,06,04,40,22.50
2008,02,06,04,41,22.50
2008,02,06,04,42,20.90
2008,02,06,04,43,8.10
2008,02,06,04,44,19.30
2008,02,06,04,45,19.30
2008,02,06,04,46,17.70
2008,02,06,04,47,20.90
2008,02,06,04,48,25.70
2008,02,06,04,49,16.10
2008,02,06,04,50,22.50
2008,02,06,04,51,16.10
2008,02,06,04,52,12.90
2008,02,06,04,53,11.30
2008,02,06,04,54,16.10
2008,02,06,04,55,14.50
2008,02,06,04,56,9.60
2008,02,06,04,57,17.70
2008,02,06,04,58,17.70
2008,02,06,04,59,6.40
2008,02,06,05,00,14.50
2008,02,06,05,01,6.40
2008,02,06,05,02,6.40
2008,02,06,05,03,11.30
2008,02,06,05,04,14.50
2008,02,06,05,05,6.40
2008,02,06,05,06,9.60
2008,02,06,05,07,9.60
2008,02,06,05,08,6.40
2008,02,06,05,09,11.30
2008,02,06,05,10,22.50
2008,02,06,05,11,11.30
2008,02,06,05,12,16.10
2008,02,06,05,13,14.50
2008,02,06,05,14,6.40
2008,02,06,05,15,11.30
2008,02,06,05,16,11.30
2008,02,06,05,17,20.90
2008,02,06,05,18,16.10
2008,02,06,05,19,11.30
2008,02,06,05,20,8.10
2008,02,06,05,21,8.10
2008,02,06,05,22,9.60
2008,02,06,05,23,8.10
2008,02,06,05,24,8.10
2008,02,06,05,25,4.80
2008,02,06,05,26,8.10
2008,02,06,05,27,6.40
2008,02,06,05,28,11.30
2008,02,06,05,29,8.10
2008,02,06,05,30,8.10
2008,02,06,05,31,8.10
2008,02,06,05,32,8.10
2008,02,06,05,33,4.80
2008,02,06,05,34,4.80
2008,02,06,05,35,8.10
2008,02,06,05,36,8.10
2008,02,06,05,37,11.30
2008,02,06,05,38,6.40
2008,02,06,05,39,4.80
2008,02,06,05,40,4.80
2008,02,06,05,41,8.10
2008,02,06,05,42,3.20
2008,02,06,05,43,4.80
2008,02,06,05,44,8.10
2008,02,06,05,45,8.10
2008,02,06,05,46,4.80
2008,02,06,05,47,4.80
2008,02,06,05,48,3.20
2008,02,06,05,49,3.20
2008,02,06,05,50,20.90
2008,02,06,05,51,20.90
2008,02,06,05,52,27.40
2008,02,06,05,53,27.40
2008,02,06,05,54,25.70
2008,02,06,05,55,22.50
2008,02,06,05,56,20.90
2008,02,06,05,57,20.90
2008,02,06,05,58,8.10
2008,02,06,05,59,8.10
2008,02,06,06,00,3.20
2008,02,06,06,01,16.10
2008,02,06,06,02,11.30
2008,02,06,06,03,16.10
2008,02,06,06,04,9.60
2008,02,06,06,05,16.10
2008,02,06,06,06,8.10
2008,02,06,06,07,9.60
2008,02,06,06,08,22.50
2008,02,06,06,09,11.30
2008,02,06,06,10,14.50
2008,02,06,06,11,22.50
2008,02,06,06,12,24.20
2008,02,06,06,13,20.90
2008,02,06,06,14,33.80
2008,02,06,06,15,30.60
2008,02,06,06,16,17.70
2008,02,06,06,17,32.20
2008,02,06,06,18,25.70
2008,02,06,06,19,32.20
2008,02,06,06,20,25.70
2008,02,06,06,21,20.90
2008,02,06,06,22,12.90
2008,02,06,06,23,12.90
2008,02,06,06,24,25.70
2008,02,06,06,25,19.30
2008,02,06,06,26,20.90
2008,02,06,06,27,16.10
2008,02,06,06,28,20.90
2008,02,06,06,29,14.50
2008,02,06,06,30,17.70
2008,02,06,06,31,9.60
2008,02,06,06,32,19.30
2008,02,06,06,33,9.60
2008,02,06,06,34,19.30
2008,02,06,06,35,9.60
2008,02,06,06,36,11.30
2008,02,06,06,37,22.50
2008,02,06,06,38,20.90
2008,02,06,06,39,11.30
2008,02,06,06,40,16.10
2008,02,06,06,41,11.30
2008,02,06,06,42,11.30
2008,02,06,06,43,12.90
2008,02,06,06,44,14.50
2008,02,06,06,45,19.30
2008,02,06,06,46,19.30
2008,02,06,06,47,14.50
2008,02,06,06,48,4.80
2008,02,06,06,49,17.70
2008,02,06,06,50,12.90
2008,02,06,06,51,16.10
2008,02,06,06,52,16.10
2008,02,06,06,53,11.30
2008,02,06,06,54,17.70
2008,02,06,06,55,14.50
2008,02,06,06,56,8.10
2008,02,06,06,57,9.60
2008,02,06,06,58,9.60
2008,02,06,06,59,9.60
2008,02,06,07,00,11.30
2008,02,06,07,01,9.60
2008,02,06,07,02,8.10
2008,02,06,07,03,9.60
2008,02,06,07,04,9.60
2008,02,06,07,05,9.60
2008,02,06,07,06,8.10
2008,02,06,07,07,8.10
2008,02,06,07,08,9.60
2008,02,06,07,09,8.10
2008,02,06,07,10,4.80
2008,02,06,07,11,8.10
2008,02,06,07,12,8.10
2008,02,06,07,13,6.40
2008,02,06,07,14,8.10
2008,02,06,07,15,8.10
2008,02,06,07,16,14.50
2008,02,06,07,17,8.10
2008,02,06,07,18,3.20
2008,02,06,07,19,1.60
2008,02,06,07,20,3.20
2008,02,06,07,21,4.80
2008,02,06,07,22,3.20
2008,02,06,07,23,4.80
2008,02,06,07,24,8.10
2008,02,06,07,25,6.40
2008,02,06,07,26,3.20
2008,02,06,07,27,4.80
2008,02,06,07,28,8.10
2008,02,06,07,29,6.40
2008,02,06,07,30,11.30
2008,02,06,07,31,14.50
2008,02,06,07,32,11.30
2008,02,06,07,33,6.40
2008,02,06,07,34,9.60
2008,02,06,07,35,11.30
2008,02,06,07,36,8.10
2008,02,06,07,37,9.60
2008,02,06,07,38,6.40
2008,02,06,07,39,9.60
2008,02,06,07,40,12.90
2008,02,06,07,41,20.90
2008,02,06,07,42,11.30
2008,02,06,07,43,9.60
2008,02,06,07,44,9.60
2008,02,06,07,45,8.10
2008,02,06,07,46,11.30
2008,02,06,07,47,9.60
2008,02,06,07,48,14.50
2008,02,06,07,49,9.60
2008,02,06,07,50,6.40
2008,02,06,07,51,4.80
2008,02,06,07,52,8.10
2008,02,06,07,53,4.80
2008,02,06,07,54,16.10
2008,02,06,07,55,14.50
2008,02,06,07,56,14.50
2008,02,06,07,57,16.10
2008,02,06,07,58,11.30
2008,02,06,07,59,25.70
2008,02,06,08,00,20.90
2008,02,06,08,01,19.30
2008,02,06,08,02,14.50
2008,02,06,08,03,19.30
2008,02,06,08,04,11.30
2008,02,06,08,05,19.30
2008,02,06,08,06,20.90
2008,02,06,08,07,17.70
2008,02,06,08,08,16.10
2008,02,06,08,09,16.10
2008,02,06,08,10,20.90
2008,02,06,08,11,24.20
2008,02,06,08,12,16.10
2008,02,06,08,13,25.70
2008,02,06,08,14,22.50
2008,02,06,08,15,12.90
2008,02,06,08,16,22.50
2008,02,06,08,17,22.50
2008,02,06,08,18,22.50
2008,02,06,08,19,16.10
2008,02,06,08,20,17.70
2008,02,06,08,21,14.50
2008,02,06,08,22,17.70
2008,02,06,08,23,20.90
2008,02,06,08,24,25.70
2008,02,06,08,25,16.10
2008,02,06,08,26,25.70
2008,02,06,08,27,22.50
2008,02,06,08,28,19.30
2008,02,06,08,29,22.50
2008,02,06,08,30,17.70
2008,02,06,08,31,19.30
2008,02,06,08,32,22.50
2008,02,06,08,33,9.60
2008,02,06,08,34,11.30
2008,02,06,08,35,16.10
2008,02,06,08,36,17.70
2008,02,06,08,37,17.70
2008,02,06,08,38,25.70
2008,02,06,08,39,19.30
2008,02,06,08,40,17.70
2008,02,06,08,41,9.60
2008,02,06,08,42,16.10
2008,02,06,08,43,14.50
2008,02,06,08,44,17.70
2008,02,06,08,45,17.70
2008,02,06,08,46,16.10
2008,02,06,08,47,19.30
2008,02,06,08,48,19.30
2008,02,06,08,49,22.50
2008,02,06,08,50,20.90
2008,02,06,08,51,17.70
2008,02,06,08,52,16.10
2008,02,06,08,53,11.30
2008,02,06,08,54,16.10
2008,02,06,08,55,11.30
2008,02,06,08,56,19.30
2008,02,06,08,57,16.10
2008,02,06,08,58,14.50
2008,02,06,08,59,11.30
2008,02,06,09,00,16.10
2008,02,06,09,01,19.30
2008,02,06,09,02,19.30
2008,02,06,09,03,16.10
2008,02,06,09,04,16.10
2008,02,06,09,05,24.20
2008,02,06,09,06,19.30
2008,02,06,09,07,19.30
2008,02,06,09,08,17.70
2008,02,06,09,09,17.70
2008,02,06,09,10,25.70
2008,02,06,09,11,19.30
2008,02,06,09,12,19.30
2008,02,06,09,13,16.10
2008,02,06,09,14,12.90
2008,02,06,09,15,19.30
2008,02,06,09,16,17.70
2008,02,06,09,17,17.70
2008,02,06,09,18,19.30
2008,02,06,09,19,24.20
2008,02,06,09,20,19.30
2008,02,06,09,21,11.30
2008,02,06,09,22,20.90
2008,02,06,09,23,11.30
2008,02,06,09,24,19.30
2008,02,06,09,25,11.30
2008,02,06,09,26,4.80
2008,02,06,09,27,1.60
2008,02,06,09,28,14.50
2008,02,06,09,29,17.70
2008,02,06,09,30,14.50
2008,02,06,09,31,3.20
2008,02,06,09,32,22.50
2008,02,06,09,33,19.30
2008,02,06,09,34,19.30
2008,02,06,09,35,14.50
2008,02,06,09,36,14.50
2008,02,06,09,37,14.50
2008,02,06,09,38,11.30
2008,02,06,09,39,20.90
2008,02,06,09,40,14.50
2008,02,06,09,41,22.50
2008,02,06,09,42,11.30
2008,02,06,09,43,14.50
2008,02,06,09,44,27.40
2008,02,06,09,45,22.50
2008,02,06,09,46,27.40
2008,02,06,09,47,19.30
2008,02,06,09,48,22.50
2008,02,06,09,49,14.50
2008,02,06,09,50,19.30
2008,02,06,09,51,25.70
2008,02,06,09,52,19.30
2008,02,06,09,53,22.50
2008,02,06,09,54,11.30
2008,02,06,09,55,17.70
2008,02,06,09,56,19.30
2008,02,06,09,57,16.10
2008,02,06,09,58,20.90
2008,02,06,09,59,17.70
2008,02,06,10,00,16.10
2008,02,06,10,01,12.90
2008,02,06,10,02,19.30
2008,02,06,10,03,16.10
2008,02,06,10,04,19.30
2008,02,06,10,05,20.90
2008,02,06,10,06,25.70
2008,02,06,10,07,22.50
2008,02,06,10,08,17.70
2008,02,06,10,09,22.50
2008,02,06,10,10,22.50
2008,02,06,10,11,22.50
2008,02,06,10,12,25.70
2008,02,06,10,13,24.20
2008,02,06,10,14,12.90
2008,02,06,10,15,11.30
2008,02,06,10,16,19.30
2008,02,06,10,17,19.30
2008,02,06,10,18,22.50
2008,02,06,10,19,29.00
2008,02,06,10,20,29.00
2008,02,06,10,21,35.40
2008,02,06,10,22,32.20
2008,02,06,10,23,38.60
2008,02,06,10,24,27.40
2008,02,06,10,25,24.20
2008,02,06,10,26,24.20
2008,02,06,10,27,25.70
2008,02,06,10,28,25.70
2008,02,06,10,29,32.20
2008,02,06,10,30,25.70
2008,02,06,10,31,20.90
2008,02,06,10,32,17.70
2008,02,06,10,33,17.70
2008,02,06,10,34,17.70
2008,02,06,10,35,22.50
2008,02,06,10,36,17.70
2008,02,06,10,37,8.10
2008,02,06,10,38,17.70
2008,02,06,10,39,20.90
2008,02,06,10,40,19.30
2008,02,06,10,41,17.70
2008,02,06,10,42,17.70
2008,02,06,10,43,12.90
2008,02,06,10,44,11.30
2008,02,06,10,45,3.20
2008,02,06,10,46,9.60
2008,02,06,10,47,12.90
2008,02,06,10,48,6.40
2008,02,06,10,49,8.10
2008,02,06,10,50,4.80
2008,02,06,10,51,4.80
2008,02,06,10,52,3.20
2008,02,06,10,53,9.60
2008,02,06,10,54,11.30
2008,02,06,10,55,11.30
2008,02,06,10,56,6.40
2008,02,06,10,57,6.40
2008,02,06,10,58,8.10
2008,02,06,10,59,8.10
2008,02,06,11,00,9.60
2008,02,06,11,01,6.40
2008,02,06,11,02,6.40
2008,02,06,11,03,4.80
2008,02,06,11,04,8.10
2008,02,06,11,05,11.30
2008,02,06,11,06,8.10
2008,02,06,11,07,6.40
2008,02,06,11,08,6.40
2008,02,06,11,09,8.10
2008,02,06,11,10,9.60
2008,02,06,11,11,4.80
2008,02,06,11,12,9.60
2008,02,06,11,13,8.10
2008,02,06,11,14,11.30
2008,02,06,11,15,14.50
2008,02,06,11,16,12.90
2008,02,06,11,17,9.60
2008,02,06,11,18,6.40
2008,02,06,11,19,16.10
2008,02,06,11,20,11.30
2008,02,06,11,21,8.10
2008,02,06,11,22,8.10
2008,02,06,11,23,16.10
2008,02,06,11,24,17.70
2008,02,06,11,25,16.10
2008,02,06,11,26,14.50
2008,02,06,11,27,9.60
2008,02,06,11,28,17.70
2008,02,06,11,29,14.50
2008,02,06,11,30,11.30
2008,02,06,11,31,17.70
2008,02,06,11,32,19.30
2008,02,06,11,33,12.90
2008,02,06,11,34,16.10
2008,02,06,11,35,11.30
2008,02,06,11,36,16.10
2008,02,06,11,37,19.30
2008,02,06,11,38,19.30
2008,02,06,11,39,9.60
2008,02,06,11,40,17.70
2008,02,06,11,41,17.70
2008,02,06,11,42,24.20
2008,02,06,11,43,19.30
2008,02,06,11,44,24.20
2008,02,06,11,45,29.00
2008,02,06,11,46,35.40
2008,02,06,11,47,30.60
2008,02,06,11,48,22.50
2008,02,06,11,49,22.50
2008,02,06,11,50,17.70
2008,02,06,11,51,27.40
2008,02,06,11,52,22.50
2008,02,06,11,53,27.40
2008,02,06,11,54,19.30
2008,02,06,11,55,20.90
2008,02,06,11,56,14.50
2008,02,06,11,57,19.30
2008,02,06,11,58,25.70
2008,02,06,11,59,16.10
2008,02,06,12,00,20.90
2008,02,06,12,01,16.10
2008,02,06,12,02,22.50
2008,02,06,12,03,14.50
2008,02,06,12,04,19.30
2008,02,06,12,05,17.70
2008,02,06,12,06,24.20
2008,02,06,12,07,24.20
2008,02,06,12,08,16.10
2008,02,06,12,09,16.10
2008,02,06,12,10,16.10
2008,02,06,12,11,24.20
2008,02,06,12,12,16.10
2008,02,06,12,13,11.30
2008,02,06,12,14,20.90
2008,02,06,12,15,17.70
2008,02,06,12,16,22.50
2008,02,06,12,17,17.70
2008,02,06,12,18,14.50
2008,02,06,12,19,11.30
2008,02,06,12,20,16.10
2008,02,06,12,21,8.10
2008,02,06,12,22,11.30
2008,02,06,12,23,9.60
2008,02,06,12,24,19.30
2008,02,06,12,25,14.50
2008,02,06,12,26,9.60
2008,02,06,12,27,16.10
2008,02,06,12,28,8.10
2008,02,06,12,29,9.60
2008,02,06,12,30,9.60
2008,02,06,12,31,14.50
2008,02,06,12,32,9.60
2008,02,06,12,33,9.60
2008,02,06,12,34,14.50
2008,02,06,12,35,17.70
2008,02,06,12,36,16.10
2008,02,06,12,37,11.30
2008,02,06,12,38,9.60
2008,02,06,12,39,4.80
2008,02,06,12,40,6.40
2008,02,06,12,41,9.60
2008,02,06,12,42,9.60
2008,02,06,12,43,4.80
2008,02,06,12,44,9.60
2008,02,06,12,45,6.40
2008,02,06,12,46,8.10
2008,02,06,12,47,11.30
2008,02,06,12,48,4.80
2008,02,06,12,49,14.50
2008,02,06,12,50,9.60
2008,02,06,12,51,8.10
2008,02,06,12,52,9.60
2008,02,06,12,53,8.10
2008,02,06,12,54,8.10
2008,02,06,12,55,8.10
2008,02,06,12,56,9.60
2008,02,06,12,57,6.40
2008,02,06,12,58,14.50
2008,02,06,12,59,11.30
2008,02,06,13,00,11.30
2008,02,06,13,01,8.10
2008,02,06,13,02,3.20
2008,02,06,13,03,3.20
2008,02,06,13,04,1.60
2008,02,06,13,05,9.60
2008,02,06,13,06,9.60
2008,02,06,13,07,9.60
2008,02,06,13,08,9.60
2008,02,06,13,09,14.50
2008,02,06,13,10,14.50
2008,02,06,13,11,14.50
2008,02,06,13,12,6.40
2008,02,06,13,13,11.30
2008,02,06,13,14,8.10
2008,02,06,13,15,8.10
2008,02,06,13,16,6.40
2008,02,06,13,17,3.20
2008,02,06,13,18,4.80
2008,02,06,13,19,6.40
2008,02,06,13,20,6.40
2008,02,06,13,21,3.20
2008,02,06,13,22,1.60
2008,02,06,13,23,0.00
2008,02,06,13,24,0.00
2008,02,06,13,25,0.00
2008,02,06,13,26,4.80
2008,02,06,13,27,0.00
2008,02,06,13,28,0.00
2008,02,06,13,29,3.20
2008,02,06,13,30,1.60
2008,02,06,13,31,3.20
2008,02,06,13,32,1.60
2008,02,06,13,33,1.60
2008,02,06,13,34,1.60
2008,02,06,13,35,0.00
2008,02,06,13,36,3.20
2008,02,06,13,37,1.60
2008,02,06,13,38,0.00
2008,02,06,13,39,0.00
2008,02,06,13,40,0.00
2008,02,06,13,41,0.00
2008,02,06,13,42,0.00
2008,02,06,13,43,0.00
2008,02,06,13,44,1.60
2008,02,06,13,45,0.00
2008,02,06,13,46,0.00
2008,02,06,13,47,1.60
2008,02,06,13,48,4.80
2008,02,06,13,49,4.80
2008,02,06,13,50,1.60
2008,02,06,13,51,3.20
2008,02,06,13,52,3.20
2008,02,06,13,53,4.80
2008,02,06,13,54,1.60
2008,02,06,13,55,0.00
2008,02,06,13,56,0.00
2008,02,06,13,57,1.60
2008,02,06,13,58,3.20
2008,02,06,13,59,4.80
2008,02,06,14,00,3.20
2008,02,06,14,01,8.10
2008,02,06,14,02,8.10
2008,02,06,14,03,3.20
2008,02,06,14,04,1.60
2008,02,06,14,05,3.20
2008,02,06,14,06,4.80
2008,02,06,14,07,6.40
2008,02,06,14,08,4.80
2008,02,06,14,09,4.80
2008,02,06,14,10,8.10
2008,02,06,14,11,6.40
2008,02,06,14,12,4.80
2008,02,06,14,13,3.20
2008,02,06,14,14,1.60
2008,02,06,14,15,3.20
2008,02,06,14,16,0.00
2008,02,06,14,17,3.20
2008,02,06,14,18,3.20
2008,02,06,14,19,3.20
2008,02,06,14,20,1.60
2008,02,06,14,21,1.60
2008,02,06,14,22,0.00
2008,02,06,14,23,0.00
2008,02,06,14,24,0.00
2008,02,06,14,25,0.00
2008,02,06,14,26,0.00
2008,02,06,14,27,0.00
2008,02,06,14,28,0.00
2008,02,06,14,29,0.00
2008,02,06,14,30,0.00
2008,02,06,14,31,0.00
2008,02,06,14,32,0.00
2008,02,06,14,33,0.00
2008,02,06,14,34,3.20
2008,02,06,14,35,3.20
2008,02,06,14,36,1.60
2008,02,06,14,37,1.60
2008,02,06,14,38,3.20
2008,02,06,14,39,3.20
2008,02,06,14,40,6.40
2008,02,06,14,41,4.80
2008,02,06,14,42,3.20
2008,02,06,14,43,3.20
2008,02,06,14,44,3.20
2008,02,06,14,45,1.60
2008,02,06,14,46,0.00
2008,02,06,14,47,3.20
2008,02,06,14,48,4.80
2008,02,06,14,49,1.60
2008,02,06,14,50,1.60
2008,02,06,14,51,1.60
2008,02,06,14,52,0.00
2008,02,06,14,53,1.60
2008,02,06,14,54,3.20
2008,02,06,14,55,4.80
2008,02,06,14,56,1.60
2008,02,06,14,57,4.80
2008,02,06,14,58,4.80
2008,02,06,14,59,3.20
2008,02,06,15,00,1.60
2008,02,06,15,01,3.20
2008,02,06,15,02,0.00
2008,02,06,15,03,0.00
2008,02,06,15,04,0.00
2008,02,06,15,05,1.60
2008,02,06,15,06,3.20
2008,02,06,15,07,4.80
2008,02,06,15,08,1.60
2008,02,06,15,09,0.00
2008,02,06,15,10,0.00
2008,02,06,15,11,0.00
2008,02,06,15,12,1.60
2008,02,06,15,13,1.60
2008,02,06,15,14,0.00
2008,02,06,15,15,1.60
2008,02,06,15,16,4.80
2008,02,06,15,17,4.80
2008,02,06,15,18,0.00
2008,02,06,15,19,1.60
2008,02,06,15,20,0.00
2008,02,06,15,21,0.00
2008,02,06,15,22,3.20
2008,02,06,15,23,6.40
2008,02,06,15,24,4.80
2008,02,06,15,25,4.80
2008,02,06,15,26,6.40
2008,02,06,15,27,4.80
2008,02,06,15,28,3.20
2008,02,06,15,29,6.40
2008,02,06,15,30,4.80
2008,02,06,15,31,4.80
2008,02,06,15,32,4.80
2008,02,06,15,33,3.20
2008,02,06,15,34,4.80
2008,02,06,15,35,3.20
2008,02,06,15,36,4.80
2008,02,06,15,37,4.80
2008,02,06,15,38,8.10
2008,02,06,15,39,9.60
2008,02,06,15,40,9.60
2008,02,06,15,41,8.10
2008,02,06,15,42,4.80
2008,02,06,15,43,3.20
2008,02,06,15,44,3.20
2008,02,06,15,45,8.10
2008,02,06,15,46,11.30
2008,02,06,15,47,9.60
2008,02,06,15,48,9.60
2008,02,06,15,49,6.40
2008,02,06,15,50,4.80
2008,02,06,15,51,6.40
2008,02,06,15,52,4.80
2008,02,06,15,53,4.80
2008,02,06,15,54,4.80
2008,02,06,15,55,4.80
2008,02,06,15,56,6.40
2008,02,06,15,57,6.40
2008,02,06,15,58,6.40
2008,02,06,15,59,8.10
2008,02,06,16,00,4.80
2008,02,06,16,01,4.80
2008,02,06,16,02,6.40
2008,02,06,16,03,4.80
2008,02,06,16,04,6.40
2008,02,06,16,05,11.30
2008,02,06,16,06,8.10
2008,02,06,16,07,6.40
2008,02,06,16,08,8.10
2008,02,06,16,09,4.80
2008,02,06,16,10,4.80
2008,02,06,16,11,6.40
2008,02,06,16,12,8.10
2008,02,06,16,13,14.50
2008,02,06,16,14,9.60
2008,02,06,16,15,6.40
2008,02,06,16,16,1.60
2008,02,06,16,17,1.60
2008,02,06,16,18,1.60
2008,02,06,16,19,1.60
2008,02,06,16,20,6.40
2008,02,06,16,21,4.80
2008,02,06,16,22,3.20
2008,02,06,16,23,4.80
2008,02,06,16,24,3.20
2008,02,06,16,25,3.20
2008,02,06,16,26,0.00
2008,02,06,16,27,0.00
2008,02,06,16,28,1.60
2008,02,06,16,29,3.20
2008,02,06,16,30,0.00
2008,02,06,16,31,3.20
2008,02,06,16,32,1.60
2008,02,06,16,33,3.20
2008,02,06,16,34,3.20
2008,02,06,16,35,4.80
2008,02,06,16,36,4.80
2008,02,06,16,37,6.40
2008,02,06,16,38,4.80
2008,02,06,16,39,0.00
2008,02,06,16,40,3.20
2008,02,06,16,41,3.20
2008,02,06,16,42,3.20
2008,02,06,16,43,1.60
2008,02,06,16,44,4.80
2008,02,06,16,45,0.00
2008,02,06,16,46,1.60
2008,02,06,16,47,0.00
2008,02,06,16,48,0.00
2008,02,06,16,49,0.00
2008,02,06,16,50,0.00
2008,02,06,16,51,0.00
2008,02,06,16,52,0.00
2008,02,06,16,53,0.00
2008,02,06,16,54,0.00
2008,02,06,16,55,0.00
2008,02,06,16,56,0.00
2008,02,06,16,57,0.00
2008,02,06,16,58,1.60
2008,02,06,16,59,3.20
2008,02,06,17,00,3.20
2008,02,06,17,01,3.20
2008,02,06,17,02,4.80
2008,02,06,17,03,3.20
2008,02,06,17,04,4.80
2008,02,06,17,05,3.20
2008,02,06,17,06,3.20
2008,02,06,17,07,3.20
2008,02,06,17,08,3.20
2008,02,06,17,09,3.20
2008,02,06,17,10,3.20
2008,02,06,17,11,4.80
2008,02,06,17,12,4.80
2008,02,06,17,13,4.80
2008,02,06,17,14,1.60
2008,02,06,17,15,4.80
2008,02,06,17,16,3.20
2008,02,06,17,17,1.60
2008,02,06,17,18,0.00
2008,02,06,17,19,3.20
2008,02,06,17,20,1.60
2008,02,06,17,21,1.60
2008,02,06,17,22,1.60
2008,02,06,17,23,3.20
2008,02,06,17,24,0.00
2008,02,06,17,25,1.60
2008,02,06,17,26,1.60
2008,02,06,17,27,0.00
2008,02,06,17,28,1.60
2008,02,06,17,29,0.00
2008,02,06,17,30,0.00
2008,02,06,17,31,0.00
2008,02,06,17,32,1.60
2008,02,06,17,33,3.20
2008,02,06,17,34,3.20
2008,02,06,17,35,3.20
2008,02,06,17,36,4.80
2008,02,06,17,37,3.20
2008,02,06,17,38,3.20
2008,02,06,17,39,1.60